Weather Roundup
Issued by NWS Chicago, IL

Home | Current Version | Previous Version | Graphics & Text | Print | Product List | Glossary On
Versions: 1 2 3 4 5 6 7 8 9 10 11 12 13 14 15 16 17 18 19 20 21 22 23 24 25 26 27 28 29 30 31 32 33 34 35 36 37 38 39 40 41 42 43 44 45 46 47 48 49 50
000
NZUS59 KLOT 250512
HRRLOT

CHICAGO AREA WEATHER ROUNDUP
NATIONAL WEATHER SERVICE CHICAGO/ROMEOVILLE IL
1100 PM CST FRI FEB 24 2017

NOTE: "FAIR" INDICATES FEW OR NO CLOUDS BELOW 12,000 FEET WITH NO
SIGNIFICANT WEATHER AND/OR OBSTRUCTIONS TO VISIBILITY.

* THESE STATIONS ARE NOT UNDER NWS QUALITY CONTROL. THEY ALSO MAY NOT
  REPORT WEATHER SUCH AS PRECIPITATION OR FOG.

ILZ005-006-012>014-019>023-250600-
NORTHEAST ILLINOIS

CITY           SKY/WX    TMP DP  RH WIND       PRES   REMARKS
OHARE          CLOUDY    34  30  85 NW13      29.59R WCI  25
MIDWAY         CLOUDY    34  30  85 W9        29.60R WCI  27
AURORA         CLOUDY    32  29  88 NW15      29.62R WCI  22
LANSING*       CLOUDY    38  36  92 W8        29.60R
JOLIET*        CLOUDY    34  32  90 NW7       29.63R FOG     WCI  28
WAUKEGAN       CLOUDY    30  28  92 NW6       29.58S WCI  24
DUPAGE AIRPORT CLOUDY    31  27  85 W8        29.61R WCI  23
WHEELING       CLOUDY    32  28  85 NW10      29.59F WCI  24
KANKAKEE*      CLOUDY    39  33  78 W17       29.63R
MORRIS*        LGT SNOW  32  30  93 NW13      29.63R WCI  22
LEWIS AIRPORT* CLOUDY    33  32  98 NW12      29.62R WCI  24
NORTHERLY ISL    N/A     35  31  85 W7          N/A  WCI  29
$$

WIZ051-052-058>065-066-070>072-250600-
SOUTHEAST WISCONSIN

CITY           SKY/WX    TMP DP  RH WIND       PRES   REMARKS
MILWAUKEE      CLOUDY    29  23  78 NW13      29.58S WCI  19
KENOSHA*       CLOUDY    30  25  81 NW9       29.58S WCI  22
RACINE*        CLOUDY    30  25  81 NW12      29.60R WCI  20
WAUKESHA       CLOUDY    27  23  86 NW9       29.59S WCI  17
WEST BEND      CLOUDY    27  27 100 NW3       29.58S
$$

INZ001>003-010>013-019-020-250600-
NORTHWEST INDIANA

CITY           SKY/WX    TMP DP  RH WIND       PRES   REMARKS
GARY*          CLOUDY    40  34  77 SW8       29.60R
MICHIGAN CITY* NOT AVBL
RENSSELAER*    NOT AVBL
VALPARAISO     MOCLDY    40  35  83 W17       29.60R
$$

LMZ740>746-250600-
SOUTHERN LAKE MICHIGAN

STATION/POSITION TIME  SKY/WX   TEMP WIND        PRES    VSBY
                                AIR  DIR/SP/G
                 (UTC)          (F)  (DEG/KT/KT) (MB)    (MI)
HARRISON CRIB    0440            35  330/ 13/ 14   N/A
BURNHAM HARBOR   0500            35  230/  8/ 12   N/A
CALUMET HARBOR   0448            37  240/  7/ 11 1001.8R
BURNS HARBOR     0440            38  270/  7/  8 1002.7R
MICHIGAN CITY    0440            35     CALM       N/A
$$

ABBREVIATIONS USED IN REMARKS
   TC - TEMPERATURE IN CELSIUS
  WCI - WIND CHILL INDEX
   HX - HEAT INDEX
  VSB - VISIBILITY
$$



USA.gov is the U.S. government's official web portal to all federal, state and local government web resources and services.